[[{"header":{"parameterUnit":"m.s-1","parameterCategory":2,"la1":30.2991,"la2":30.254,"lo1":-89.0895,"lo2":-89.0444,"dy":0.0017,"dx":0.0017,"nx":28,"ny":28,"refTime":"2023-08-01T21:00:00:Z","depth":"0","parameterNumber":2,"parameterNumberName":"U-component_of_CURRENTS"},"data":[0,0,0,0,0,0,0,0,0,0,0,0,0,0,0,0,0,0,0,0,0,0,0,0,0,0,0,0,0,0,0,0,0,0,0,0,0,0,0,0,0,0,0,0,0,0,0,0,0,0,0,0,0,0,0,0,0,0,0.4432,0.4433,0,0.4462,0.4462,0.4462,0.4419,0.4418,0.4416,0.4415,0.4437,0.4439,0.444,0,0,0,0,0,0,0,0,0,0,0,0,0,0.4391,0.4391,0.4432,0.4433,0.4434,0.4462,0.4462,0.4462,0.4419,0.4418,0.4416,0.4415,0.4437,0.4439,0.4441,0,0,0,0,0,0,0,0,0,0,0,0,0,0.4408,0.4391,0.4432,0.4419,0.4419,0.4462,0.4462,0.4462,0.4419,0.4417,0.4416,0.4414,0.4436,0.4439,0.4441,0.4487,0,0,0.4448,0.4449,0,0,0,0,0,0,0,0,0.4407,0.4409,0.442,0.442,0.442,0.444,0.4456,0.4472,0.4419,0.4414,0.4415,0.4414,0.4442,0.4444,0.4446,0.4488,0.4489,0.4448,0.445,0.4451,0.4451,0,0,0,0,0,0,0,0.4406,0.4408,0.4439,0.4422,0.4421,0.4431,0.4431,0.4459,0.4432,0.4414,0.4412,0.4424,0.4441,0.4444,0.4446,0.449,0.4448,0.445,0.4452,0.4453,0.4646,0.4649,0,0,0,0,0,0,0.4412,0.4407,0.4438,0.444,0.4416,0.4433,0.4433,0.4431,0.4432,0.4432,0.4426,0.4422,0.444,0.4443,0.4447,0.4569,0.4451,0.4453,0.4454,0.4642,0.4647,0.4651,0,0,0,0,0,0,0.4411,0.4414,0.4437,0.4429,0.4433,0.4436,0.4434,0.4432,0.4438,0.4442,0.444,0.4433,0.4439,0.4443,0.4496,0.4567,0.4454,0.4456,0.4638,0.4644,0.4649,0.4772,0,0,0,0,0,0,0.4409,0.4413,0.441,0.4429,0.4434,0.4482,0.4436,0.4434,0.445,0.4446,0.4449,0.4449,0.4438,0.4493,0.4498,0.4568,0.4458,0.4633,0.464,0.4647,0.4763,0.4781,0.4796,0,0,0,0,0,0.4407,0.4419,0.4409,0.4413,0.443,0.4484,0.4488,0.4481,0.4452,0.4474,0.4479,0.4448,0.4541,0.4498,0.4503,0.4575,0.463,0.4638,0.4646,0.4755,0.4777,0.4796,0,0,0,0,0,0,0.4391,0.4416,0.4406,0.442,0.4457,0.4479,0.4495,0.4492,0.4511,0.4501,0.4489,0.4492,0.4573,0.4559,0.4511,0.4655,0.4584,0.4594,0.4665,0.4686,0.4702,0.4793,0.446,0,0,0,0,0,0.439,0.4408,0.4437,0.4452,0.4468,0.4482,0.4498,0.4503,0.4526,0.453,0.4535,0.4556,0.4615,0.4633,0.467,0.4739,0.4795,0.4794,0.481,0.4824,0.4906,0.5042,0.508,0.4678,0.4678,0.4678,0,0,0.4387,0.4406,0.4412,0.4452,0.4469,0.453,0.4486,0.4527,0.4594,0.4534,0.4607,0.4615,0.4649,0.4736,0.477,0.4728,0.4962,0.4835,0.4846,0.4922,0.5055,0.5095,0.513,0.4684,0.4683,0.4682,0,0,0.4422,0.4409,0.4447,0.4491,0.454,0.4561,0.4579,0.4613,0.4639,0.4717,0.4705,0.4774,0.4817,0.4881,0.4916,0.5054,0.505,0.5036,0.519,0.5319,0.5354,0.5386,0.5482,0.5522,0.5037,0.5037,0.5037,0,0.442,0.4473,0.447,0.4537,0.4596,0.4584,0.4669,0.4704,0.4754,0.4812,0.4761,0.4909,0.4918,0.5081,0.5134,0.51,0.5153,0.51,0.5344,0.5376,0.5407,0.5498,0.554,0.5044,0.5043,0.5042,0.5042,0,0.4499,0.4551,0.4584,0.4666,0.4725,0.4794,0.4857,0.491,0.493,0.4975,0.512,0.5146,0.5244,0.5249,0.5243,0.546,0.5419,0.5349,0.5293,0.5455,0.5539,0.5581,0.5054,0.5051,0.5049,0.5048,0,0,0.449,0.4615,0.4631,0.4709,0.4808,0.4872,0.4994,0.5123,0.5216,0.5268,0.5424,0.5534,0.5533,0.5581,0.5566,0.5686,0.5924,0.5623,0.5626,0.5723,0.6204,0.6018,0.6044,0.5882,0.5891,0.5898,0.6167,0,0.4564,0.4708,0.4767,0.493,0.5014,0.5083,0.5213,0.5324,0.5389,0.552,0.56,0.5721,0.5659,0.5709,0.5832,0.5915,0.6045,0.5859,0.6035,0.6042,0.586,0.6092,0.5695,0.5889,0.6207,0.6214,0.6219,0,0.4641,0.4732,0.4894,0.5091,0.5139,0.5241,0.5442,0.5558,0.5728,0.5785,0.5911,0.5942,0.6161,0.605,0.6332,0.6208,0.6257,0.6298,0.6306,0.614,0.5936,0.5786,0.5952,0.577,0.6282,0.6277,0.6273,0,0.4653,0.4839,0.4974,0.5037,0.5237,0.535,0.5469,0.5639,0.5765,0.5954,0.6047,0.6245,0.6372,0.6499,0.6565,0.6483,0.6839,0.6711,0.6598,0.6582,0.6293,0.6237,0.6315,0.6947,0.6946,0.6945,0.6944,0,0.4738,0.4862,0.4988,0.5068,0.5266,0.5393,0.5612,0.5731,0.5929,0.608,0.6181,0.6322,0.6499,0.6666,0.6699,0.6794,0.6949,0.6725,0.6682,0.6315,0.6261,0.6121,0.6071,0.6955,0.6953,0.6951,0.6949,0,0.4797,0.4863,0.5018,0.5202,0.5277,0.542,0.569,0.5827,0.5996,0.6197,0.6273,0.6489,0.6698,0.6817,0.7044,0.6958,0.6847,0.7025,0.6568,0.6466,0.6129,0.6099,0.6067,0.5906,0.6985,0.6983,0.6981,0,0.4867,0.4935,0.5085,0.5159,0.5261,0.5476,0.5621,0.584,0.597,0.626,0.6353,0.6618,0.6721,0.6973,0.6907,0.6962,0.6797,0.6615,0.6396,0.6153,0.6091,0.5908,0.5762,0.606,0.605,0.6043,0.6037,0,0.4999,0.5008,0.5105,0.5216,0.535,0.5538,0.5747,0.5846,0.608,0.6193,0.6365,0.6472,0.6661,0.6521,0.6571,0.6542,0.6256,0.6456,0.6343,0.5538,0.5217,0.5016,0.5835,0.5968,0.5975,0.598,0.5984,0.5986,0.5081,0.5104,0.5153,0.5268,0.5408,0.554,0.5588,0.5743,0.5873,0.5895,0.6189,0.6117,0.6117,0.6109,0.6073,0.5706,0.5824,0.5452,0.5494,0.5377,0.5047,0.5715,0.5692,0.5697,0.5701,0.5705,0.5708,0,0.5123,0.5119,0.5211,0.5271,0.535,0.5468,0.5605,0.5528,0.5485,0.5554,0.5585,0.5428,0.5256,0.5226,0.4965,0.475,0.4547,0.4622,0.4279,0.4229,0.4933,0.4708,0.4298,0.4298,0.4298,0.4298,0.4298,0.4299,0.5129,0.5145,0.5118,0.5171,0.5218,0.5179,0.5173,0.5027,0.4981,0.469,0.4474,0.4525,0.4627,0.4508,0.4224,0.4112,0.3857,0.3601,0.3767,0.423,0.4309,0.4384,0.416,0.3641,0.3641,0.2764,0.2757,0.2753]},{"header":{"parameterUnit":"m.s-1","parameterCategory":2,"la1":30.2991,"la2":30.254,"lo1":-89.0895,"lo2":-89.0444,"dy":0.0017,"dx":0.0017,"nx":28,"ny":28,"refTime":"2023-08-01T21:00:00:Z","depth":"0","parameterNumber":3,"parameterNumberName":"V-component_of_CURRENTS"},"data":[0,0,0,0,0,0,0,0,0,0,0,0,0,0,0,0,0,0,0,0,0,0,0,0,0,0,0,0,0,0,0,0,0,0,0,0,0,0,0,0,0,0,0,0,0,0,0,0,0,0,0,0,0,0,0,0,0,0,0.0154,0.0153,0,0.0099,0.0099,0.0098,0.0044,0.0043,0.0043,0.0042,-0.0039,-0.004,-0.0042,0,0,0,0,0,0,0,0,0,0,0,0,0,0.0185,0.0185,0.0154,0.0153,0.0153,0.0099,0.0098,0.0098,0.0044,0.0043,0.0043,0.0042,-0.0038,-0.004,-0.0042,0,0,0,0,0,0,0,0,0,0,0,0,0,0.0154,0.0185,0.0154,0.012,0.0117,0.01,0.0098,0.0097,0.0044,0.0043,0.0043,0.0042,-0.0038,-0.004,-0.0042,-0.004,0,0,-0.005,-0.0051,0,0,0,0,0,0,0,0,0.0156,0.0153,0.0126,0.0123,0.0119,0.0079,0.008,0.0051,0.0045,0.0071,0.0042,0.0041,-0.0001,-0.0006,-0.0016,-0.0043,-0.0047,-0.005,-0.0052,-0.0053,-0.0053,0,0,0,0,0,0,0,0.0158,0.0155,0.0131,0.0125,0.0121,0.0099,0.0094,0.0074,0.0039,0.0068,0.0065,0.0061,-0.0003,-0.0013,-0.0018,-0.0048,-0.005,-0.0052,-0.0054,-0.0055,-0.0046,-0.0044,0,0,0,0,0,0,0.017,0.0157,0.0133,0.0129,0.0137,0.01,0.0094,0.0091,0.004,0.0032,0.0062,0.0058,-0.0009,-0.0015,-0.0021,0.0021,-0.0053,-0.0055,-0.0056,-0.0047,-0.0045,-0.0043,0,0,0,0,0,0,0.0171,0.0168,0.0135,0.0143,0.0137,0.01,0.0098,0.0091,0.0081,0.0035,0.0026,0.006,-0.001,-0.0018,-0.0025,0.0016,-0.0056,-0.0058,-0.0049,-0.0047,-0.0044,0.008,0,0,0,0,0,0,0.0172,0.0169,0.0173,0.0144,0.0137,0.0143,0.0099,0.009,0.0081,0.0076,0.0031,0.0022,-0.0011,-0.0021,-0.0027,0.0011,-0.006,-0.0051,-0.0048,-0.0045,0.0073,0.0086,0.0097,0,0,0,0,0,0.0173,0.0195,0.0174,0.0171,0.0144,0.0144,0.014,0.0109,0.0082,0.0093,0.006,0.0023,-0.0005,-0.0021,-0.0029,0.001,-0.0053,-0.0049,-0.0045,0.0068,0.0084,0.0097,0,0,0,0,0,0,0.0214,0.019,0.0167,0.0179,0.0167,0.0136,0.0143,0.0117,0.0099,0.0094,0.004,0.0031,0.0041,0.0007,-0.0009,0.0022,-0.0033,-0.003,0.0056,0.007,0.0082,0.0135,-0.0062,0,0,0,0,0,0.0224,0.0232,0.0204,0.0216,0.021,0.0175,0.0169,0.0153,0.0131,0.0122,0.0086,0.0058,0.0051,0.0046,0.0027,0.0042,0.0028,0.0063,0.0075,0.0085,0.0124,0.0134,0.0151,-0.0031,-0.0031,-0.0031,0,0,0.0243,0.0232,0.0235,0.0225,0.0208,0.0231,0.017,0.0177,0.0205,0.0117,0.0136,0.0094,0.0063,0.0083,0.0085,0.006,0.0127,0.009,0.0099,0.0133,0.014,0.0157,0.0173,-0.0028,-0.0029,-0.0029,0,0,0.0303,0.0275,0.0307,0.0303,0.0293,0.0277,0.0283,0.0255,0.0251,0.0263,0.0212,0.0204,0.0176,0.0173,0.0167,0.0234,0.0186,0.0216,0.0325,0.0333,0.0349,0.0362,0.0361,0.0373,0.0226,0.0227,0.0227,0,0.0327,0.036,0.0318,0.0352,0.0365,0.0305,0.0353,0.0346,0.0322,0.0336,0.0289,0.0279,0.0234,0.0286,0.0304,0.0266,0.0254,0.0272,0.0351,0.0364,0.0376,0.0371,0.0383,0.0233,0.0232,0.0232,0.0231,0,0.0412,0.0438,0.0459,0.0481,0.0491,0.0521,0.0507,0.0515,0.049,0.048,0.051,0.0455,0.0455,0.0433,0.0388,0.0455,0.0414,0.0361,0.0319,0.0402,0.0391,0.0401,0.0242,0.024,0.0238,0.0236,0,0,0.0471,0.0512,0.0522,0.0556,0.0564,0.0585,0.0636,0.0669,0.0713,0.0682,0.075,0.0718,0.0674,0.0666,0.0606,0.061,0.0659,0.0529,0.0527,0.0538,0.0677,0.0591,0.0593,0.0614,0.0617,0.0619,0.0633,0,0.0553,0.0646,0.0648,0.0741,0.0783,0.0763,0.082,0.0841,0.084,0.0883,0.0848,0.0877,0.0769,0.0774,0.0764,0.0699,0.0695,0.0661,0.0588,0.0587,0.0508,0.0605,0.0566,0.057,0.0642,0.0644,0.0645,0,0.0635,0.0689,0.0794,0.0873,0.0892,0.0943,0.1018,0.1064,0.1103,0.1106,0.1124,0.1083,0.1108,0.0988,0.0947,0.0929,0.0823,0.0753,0.0751,0.0644,0.0522,0.05,0.0586,0.0352,0.0661,0.0659,0.0658,0,0.069,0.0792,0.0881,0.0905,0.0982,0.1039,0.1086,0.1134,0.1204,0.1257,0.132,0.1301,0.1337,0.1221,0.1063,0.1017,0.0998,0.0909,0.0733,0.0724,0.0668,0.065,0.0533,0.0874,0.0874,0.0874,0.0874,0,0.0766,0.0839,0.0916,0.0962,0.1091,0.1115,0.125,0.1285,0.1375,0.1508,0.1445,0.1561,0.14,0.1356,0.1161,0.1,0.1073,0.0793,0.074,0.0705,0.0691,0.0463,0.0336,0.0875,0.0875,0.0875,0.0875,0,0.0809,0.0854,0.0965,0.1072,0.1117,0.121,0.1364,0.146,0.1529,0.1711,0.1751,0.1793,0.177,0.156,0.1399,0.1158,0.0835,0.0879,0.0842,0.0784,0.0386,0.0268,0.011,0.002,0.072,0.0718,0.0717,0,0.0847,0.09,0.1041,0.1127,0.1185,0.1324,0.1429,0.1526,0.1651,0.1878,0.1992,0.2035,0.2113,0.1825,0.1417,0.1074,0.0832,0.075,0.0645,0.0396,0.0226,0.0126,0.0056,0.0618,0.0616,0.0614,0.0612,0,0.0926,0.0961,0.1057,0.1217,0.1346,0.1502,0.1671,0.1799,0.1964,0.2159,0.242,0.2512,0.2257,0.1921,0.1391,0.1127,0.0571,0.07,0.047,0.0177,0.0039,-0.0084,0.0562,0.0596,0.0598,0.0599,0.06,0.0601,0.0993,0.1065,0.1181,0.1338,0.1488,0.1685,0.1845,0.2058,0.2326,0.2651,0.2721,0.2891,0.232,0.1641,0.1251,0.0445,0.0483,0.0174,0.0067,0.0001,-0.0132,0.047,0.0413,0.0414,0.0414,0.0415,0.0415,0,0.1078,0.1154,0.1299,0.1494,0.1663,0.1728,0.2012,0.2206,0.2565,0.2846,0.3093,0.2858,0.2194,0.1476,0.0393,-0.0129,-0.0287,-0.0398,-0.0539,-0.0567,-0.0003,-0.0057,-0.0251,-0.0251,-0.0251,-0.025,-0.025,-0.025,0.113,0.1257,0.1321,0.1606,0.1752,0.201,0.2187,0.2503,0.2753,0.3078,0.3141,0.3153,0.2518,0.073,-0.0476,-0.0717,-0.1005,-0.1119,-0.1233,-0.0869,-0.0824,-0.0781,-0.0862,-0.1221,-0.1223,-0.1752,-0.1758,-0.1762]}],[{"header":{"parameterUnit":"m.s-1","parameterCategory":2,"la1":30.2991,"la2":30.254,"lo1":-89.0895,"lo2":-89.0444,"dy":0.0017,"dx":0.0017,"nx":28,"ny":28,"refTime":"2023-08-01T21:00:00:Z","depth":"2","parameterNumber":2,"parameterNumberName":"U-component_of_CURRENTS"},"data":[0,0,0,0,0,0,0,0,0,0,0,0,0,0,0,0,0,0,0,0,0,0,0,0,0,0,0,0,0,0,0,0,0,0,0,0,0,0,0,0,0,0,0,0,0,0,0,0,0,0,0,0,0,0,0,0,0,0,0.3435,0.3436,0,0.348,0.3481,0.3481,0.3509,0.351,0.351,0.3511,0.3561,0.3561,0.3562,0,0,0,0,0,0,0,0,0,0,0,0,0,0.339,0.3391,0.3435,0.3436,0.3437,0.348,0.3481,0.3481,0.3509,0.351,0.3511,0.3511,0.356,0.3561,0.3562,0,0,0,0,0,0,0,0,0,0,0,0,0,0.3415,0.3391,0.3435,0.346,0.3463,0.348,0.3481,0.3481,0.3509,0.351,0.3511,0.3512,0.356,0.3561,0.3562,0.3551,0,0,0.3566,0.3566,0,0,0,0,0,0,0,0,0.3414,0.3416,0.3455,0.3458,0.3462,0.3495,0.3483,0.3506,0.3509,0.3486,0.3511,0.3512,0.3542,0.3544,0.3544,0.3553,0.3555,0.3566,0.3567,0.3567,0.3567,0,0,0,0,0,0,0,0.3412,0.3415,0.3448,0.3457,0.3461,0.3476,0.3479,0.3487,0.3504,0.3488,0.3492,0.3504,0.3543,0.3542,0.3545,0.3556,0.3566,0.3567,0.3568,0.3568,0.3692,0.3695,0,0,0,0,0,0,0.3415,0.3413,0.3447,0.345,0.3445,0.3476,0.348,0.3479,0.3504,0.351,0.3504,0.3506,0.354,0.3544,0.3547,0.3677,0.3567,0.3568,0.3569,0.3689,0.3693,0.3695,0,0,0,0,0,0,0.3413,0.3416,0.3445,0.3437,0.3443,0.3476,0.3475,0.348,0.3507,0.3517,0.3522,0.353,0.3541,0.3545,0.3596,0.3674,0.3569,0.357,0.3686,0.369,0.3694,0.3845,0,0,0,0,0,0,0.3411,0.3415,0.343,0.3437,0.3443,0.3484,0.3474,0.348,0.3514,0.3518,0.354,0.3544,0.3542,0.3594,0.3597,0.3673,0.357,0.3683,0.3688,0.3693,0.3837,0.3854,0.3868,0,0,0,0,0,0.3409,0.3425,0.343,0.3435,0.3457,0.3486,0.3491,0.3514,0.3515,0.3538,0.3561,0.3545,0.3628,0.3597,0.3599,0.3678,0.3681,0.3687,0.3692,0.383,0.385,0.3868,0,0,0,0,0,0,0.3407,0.343,0.3435,0.3455,0.3483,0.3493,0.3518,0.3528,0.356,0.3571,0.357,0.3576,0.3656,0.3635,0.3601,0.3727,0.3655,0.3662,0.3759,0.3778,0.3793,0.3815,0.3571,0,0,0,0,0,0.3414,0.3432,0.3456,0.3472,0.3488,0.3505,0.3524,0.3542,0.3566,0.3582,0.3595,0.3622,0.3676,0.3701,0.3726,0.3782,0.3805,0.3836,0.3852,0.3865,0.3884,0.3987,0.4014,0.3715,0.3715,0.3715,0,0,0.3412,0.3432,0.3439,0.3475,0.3491,0.3534,0.3518,0.3558,0.3613,0.3581,0.3652,0.3675,0.3702,0.3784,0.3817,0.3781,0.3966,0.3873,0.3884,0.3896,0.3996,0.4025,0.4052,0.3719,0.3718,0.3718,0,0,0.3427,0.344,0.3467,0.3506,0.3555,0.3568,0.3587,0.3617,0.3654,0.3716,0.3732,0.38,0.3839,0.3897,0.3928,0.4038,0.4046,0.4049,0.4151,0.4252,0.4278,0.4301,0.4388,0.4418,0.4057,0.4058,0.4058,0,0.3434,0.3461,0.3482,0.3536,0.357,0.3589,0.3635,0.3684,0.3732,0.3774,0.3759,0.3886,0.3902,0.4044,0.4095,0.408,0.4132,0.4081,0.4276,0.4299,0.432,0.4404,0.4434,0.4066,0.4065,0.4064,0.4063,0,0.348,0.3513,0.3535,0.3603,0.3648,0.3687,0.3756,0.3801,0.3832,0.3887,0.4017,0.4058,0.4141,0.4167,0.4171,0.4345,0.4334,0.4286,0.4232,0.436,0.4439,0.4469,0.4077,0.4074,0.4072,0.407,0,0,0.3456,0.3545,0.3554,0.359,0.3685,0.3715,0.3816,0.3904,0.3986,0.4062,0.4174,0.4295,0.4335,0.4374,0.4406,0.4495,0.4696,0.4471,0.4472,0.4567,0.4936,0.473,0.4742,0.4696,0.4702,0.4706,0.4939,0,0.348,0.3556,0.361,0.3689,0.3727,0.3794,0.3893,0.3994,0.4075,0.4191,0.4294,0.4415,0.4418,0.4479,0.4588,0.4679,0.4779,0.4638,0.479,0.4794,0.4603,0.477,0.4375,0.4532,0.4968,0.4973,0.4976,0,0.3507,0.3553,0.3634,0.3722,0.3751,0.3819,0.395,0.4061,0.4245,0.4318,0.4471,0.4542,0.4747,0.4683,0.4956,0.4878,0.493,0.4971,0.498,0.4752,0.4642,0.447,0.4568,0.5025,0.5021,0.5017,0.5014,0,0.3476,0.3556,0.361,0.3653,0.3786,0.384,0.3918,0.4097,0.4218,0.4425,0.4526,0.474,0.4879,0.5005,0.5123,0.5068,0.5369,0.5288,0.515,0.5136,0.4808,0.4753,0.5445,0.5445,0.5444,0.5444,0.5443,0,0.3476,0.3518,0.3594,0.3656,0.3727,0.3841,0.3988,0.4091,0.4297,0.4463,0.4624,0.4771,0.4969,0.5143,0.5207,0.5302,0.5457,0.5213,0.5197,0.4846,0.4795,0.5204,0.5173,0.5452,0.545,0.5449,0.5447,0,0.3434,0.3508,0.3596,0.3715,0.3736,0.3819,0.4,0.4084,0.4325,0.454,0.4614,0.4874,0.5091,0.5242,0.5448,0.5403,0.5488,0.5452,0.502,0.4946,0.5169,0.5143,0.5352,0.5347,0.5343,0.5339,0.5336,0,0.339,0.3439,0.3606,0.3648,0.3701,0.3815,0.3861,0.4075,0.4195,0.4584,0.4664,0.4934,0.5057,0.5301,0.5276,0.5344,0.5444,0.4962,0.4746,0.5203,0.5169,0.5149,0.513,0.4404,0.4393,0.4385,0.4378,0,0.3345,0.3456,0.3554,0.3633,0.3689,0.3741,0.3852,0.3919,0.4204,0.4389,0.462,0.4742,0.4957,0.4826,0.4892,0.4864,0.4916,0.4782,0.5443,0.4445,0.4315,0.4278,0.429,0.4303,0.431,0.4316,0.432,0.4323,0.3344,0.3377,0.3549,0.3583,0.3662,0.3662,0.3648,0.3766,0.393,0.4114,0.4345,0.4403,0.447,0.4345,0.4249,0.4182,0.4496,0.4282,0.4307,0.4342,0.4147,0.4012,0.3908,0.3913,0.3917,0.3921,0.3925,0,0.329,0.3352,0.3426,0.3532,0.3506,0.3591,0.3621,0.3556,0.3621,0.3776,0.3896,0.3609,0.354,0.3644,0.3421,0.3398,0.3365,0.3256,0.3186,0.3264,0.3334,0.3084,0.2567,0.2562,0.2558,0.2553,0,0,0.3338,0.3363,0.3366,0.3346,0.3359,0.3314,0.326,0.317,0.3236,0.3159,0.3154,0.3352,0.3529,0.2991,0.2922,0.2712,0.2961,0.2605,0.3705,0.3703,0.3766,0.3947,0.3654,0,0,0,0,0]},{"header":{"parameterUnit":"m.s-1","parameterCategory":2,"la1":30.2991,"la2":30.254,"lo1":-89.0895,"lo2":-89.0444,"dy":0.0017,"dx":0.0017,"nx":28,"ny":28,"refTime":"2023-08-01T21:00:00:Z","depth":"2","parameterNumber":3,"parameterNumberName":"V-component_of_CURRENTS"},"data":[0,0,0,0,0,0,0,0,0,0,0,0,0,0,0,0,0,0,0,0,0,0,0,0,0,0,0,0,0,0,0,0,0,0,0,0,0,0,0,0,0,0,0,0,0,0,0,0,0,0,0,0,0,0,0,0,0,0,0.0019,0.0018,0,-0.003,-0.003,-0.0031,-0.0067,-0.0067,-0.0068,-0.0068,-0.0132,-0.0133,-0.0135,0,0,0,0,0,0,0,0,0,0,0,0,0,0.0049,0.0049,0.0019,0.0018,0.0018,-0.0029,-0.003,-0.0031,-0.0067,-0.0067,-0.0068,-0.0068,-0.0131,-0.0133,-0.0135,0,0,0,0,0,0,0,0,0,0,0,0,0,0.0021,0.0049,0.0019,-0.0005,-0.0008,-0.0029,-0.003,-0.0031,-0.0067,-0.0067,-0.0068,-0.0068,-0.0131,-0.0133,-0.0135,-0.0142,0,0,-0.0142,-0.0143,0,0,0,0,0,0,0,0,0.0023,0.002,-0.0001,-0.0004,-0.0007,-0.0042,-0.0043,-0.0069,-0.0067,-0.0046,-0.0068,-0.0068,-0.0102,-0.0107,-0.0116,-0.0145,-0.0148,-0.0142,-0.0143,-0.0144,-0.0145,0,0,0,0,0,0,0,0.0025,0.0022,-0.0002,-0.0002,-0.0005,-0.0024,-0.0028,-0.0048,-0.0073,-0.0048,-0.005,-0.0054,-0.0104,-0.0114,-0.0118,-0.0149,-0.0142,-0.0144,-0.0145,-0.0146,-0.0171,-0.0171,0,0,0,0,0,0,0.0035,0.0024,0.0,-0.0003,0.0009,-0.0024,-0.0029,-0.0031,-0.0072,-0.0078,-0.0053,-0.0055,-0.011,-0.0116,-0.0121,-0.0103,-0.0144,-0.0146,-0.0148,-0.0172,-0.0171,-0.017,0,0,0,0,0,0,0.0036,0.0033,0.0002,0.001,0.0005,-0.0024,-0.0026,-0.0032,-0.0038,-0.0076,-0.0083,-0.0053,-0.0111,-0.0117,-0.013,-0.0107,-0.0147,-0.0149,-0.0173,-0.0172,-0.0171,-0.0086,0,0,0,0,0,0,0.0037,0.0034,0.0039,0.0011,0.0005,0.0001,-0.0026,-0.0032,-0.004,-0.0042,-0.0078,-0.0085,-0.0111,-0.0126,-0.0132,-0.0111,-0.0151,-0.0174,-0.0172,-0.0171,-0.0089,-0.0082,-0.0075,0,0,0,0,0,0.0038,0.0052,0.004,0.0037,0.0012,0.0002,-0.0002,-0.0025,-0.0039,-0.0034,-0.006,-0.0084,-0.0122,-0.0127,-0.0134,-0.0113,-0.0174,-0.0173,-0.0171,-0.0092,-0.0083,-0.0076,0,0,0,0,0,0,0.0068,0.0048,0.0035,0.0041,0.0027,-0.0003,-0.0,-0.0018,-0.0035,-0.0037,-0.0077,-0.0085,-0.0089,-0.0114,-0.0118,-0.0118,-0.0151,-0.0151,-0.0089,-0.0081,-0.0074,-0.0045,-0.0153,0,0,0,0,0,0.0077,0.0082,0.0057,0.0063,0.0058,0.0029,0.0023,0.0009,-0.0011,-0.0019,-0.0048,-0.0073,-0.0088,-0.0094,-0.0118,-0.0115,-0.0137,-0.0106,-0.0099,-0.0093,-0.0075,-0.0094,-0.0087,-0.0166,-0.0166,-0.0166,0,0,0.0089,0.0081,0.0082,0.007,0.0055,0.0067,0.0025,0.0024,0.0038,-0.0023,-0.0017,-0.0053,-0.0085,-0.0083,-0.0086,-0.0099,-0.0084,-0.0091,-0.0086,-0.007,-0.0092,-0.0084,-0.0077,-0.0165,-0.0165,-0.0165,0,0,0.0125,0.0109,0.0128,0.0124,0.0113,0.0098,0.0102,0.0076,0.0068,0.0065,0.0028,0.0008,-0.0021,-0.0034,-0.0045,-0.0013,-0.0051,-0.0023,0.0043,0.0024,0.0031,0.0036,0.0017,0.002,-0.0014,-0.0013,-0.0013,0,0.0142,0.0165,0.0133,0.0155,0.0164,0.0118,0.0149,0.0136,0.011,0.0115,0.0079,0.0044,0.0007,0.0024,0.0031,0.0005,-0.0013,0.0016,0.0035,0.004,0.0044,0.0023,0.0025,-0.0009,-0.001,-0.001,-0.001,0,0.0197,0.0216,0.0229,0.0244,0.0247,0.0265,0.0246,0.0245,0.0222,0.0207,0.0203,0.0146,0.0135,0.0111,0.008,0.01,0.0075,0.0042,0.0018,0.0057,0.0032,0.0033,-0.0003,-0.0004,-0.0006,-0.0007,0,0,0.0232,0.0263,0.0268,0.0304,0.03,0.0317,0.0334,0.0347,0.0385,0.0327,0.0367,0.0307,0.0274,0.026,0.0212,0.0186,0.0188,0.0136,0.0133,0.0126,0.0151,0.0082,0.0075,0.0159,0.016,0.016,0.0121,0,0.0288,0.0361,0.0354,0.0428,0.0467,0.0441,0.0474,0.0478,0.0468,0.0491,0.042,0.0433,0.0334,0.0341,0.0297,0.0231,0.0195,0.0202,0.0107,0.0104,0.0045,0.0076,0.0111,0.0074,0.0122,0.0122,0.0122,0,0.0344,0.0395,0.0475,0.0548,0.0562,0.0598,0.0656,0.0684,0.0688,0.0682,0.066,0.0607,0.0575,0.0477,0.0372,0.0384,0.0278,0.02,0.0196,0.0106,0.0037,0.0041,0.0074,0.0123,0.0123,0.0123,0.0123,0,0.0406,0.048,0.0556,0.0577,0.0642,0.0682,0.072,0.0745,0.0809,0.0817,0.0867,0.0781,0.0781,0.0633,0.046,0.0428,0.0332,0.0267,0.0097,0.009,0.0089,0.0081,0.0178,0.0178,0.0178,0.0178,0.0178,0,0.0473,0.0538,0.0598,0.0651,0.0777,0.0774,0.0906,0.0927,0.0983,0.1103,0.0989,0.1055,0.0821,0.073,0.0533,0.0333,0.0388,0.0121,0.008,0.0117,0.0112,0.0128,0.0122,0.0177,0.0177,0.0177,0.0178,0,0.0526,0.0561,0.0672,0.0765,0.0817,0.0908,0.1057,0.1145,0.1182,0.1337,0.1353,0.1282,0.1155,0.0901,0.0671,0.0456,0.0249,0.0153,0.0206,0.017,-0.0001,-0.0002,-0.0031,-0.0034,-0.0036,-0.0038,-0.004,0,0.0559,0.0613,0.0772,0.0873,0.0928,0.107,0.1179,0.1249,0.1364,0.1497,0.1586,0.1493,0.1449,0.1062,0.0665,0.0298,0.0242,0.007,-0.001,0.0016,-0.002,-0.0017,-0.0015,0.0028,0.0027,0.0026,0.0025,0,0.0637,0.0685,0.0795,0.0995,0.1136,0.1314,0.148,0.1604,0.1715,0.183,0.1955,0.1918,0.1541,0.1153,0.0615,0.0364,0.0123,0.0038,0.0089,0.0059,0.0064,0.003,0.0033,0.0019,0.0019,0.002,0.002,0.002,0.0704,0.08,0.095,0.1142,0.1313,0.1543,0.1711,0.1875,0.2081,0.2237,0.2184,0.2113,0.1672,0.0958,0.0525,0.0061,0.0074,-0.0103,-0.0097,-0.009,-0.0092,-0.0094,-0.0168,-0.0169,-0.0169,-0.0169,-0.0169,0,0.0809,0.092,0.109,0.1338,0.1526,0.1612,0.19,0.2047,0.2293,0.2357,0.2394,0.1952,0.1512,0.1019,0.033,-0.0092,-0.0107,-0.0229,-0.0146,-0.0136,-0.0129,-0.013,-0.0218,-0.0219,-0.022,-0.0222,0,0,0.0876,0.1055,0.1141,0.1474,0.1645,0.1922,0.2097,0.2292,0.2399,0.2443,0.236,0.2191,0.1632,0.1114,0.0558,0.0176,0.0113,0.0093,0.0177,0.035,0.0363,-0.0013,0.0,0,0,0,0,0]}],[{"header":{"parameterUnit":"m.s-1","parameterCategory":2,"la1":30.2991,"la2":30.254,"lo1":-89.0895,"lo2":-89.0444,"dy":0.0017,"dx":0.0017,"nx":28,"ny":28,"refTime":"2023-08-01T21:00:00:Z","depth":"4","parameterNumber":2,"parameterNumberName":"U-component_of_CURRENTS"},"data":[0,0,0,0,0,0,0,0,0,0,0,0,0,0,0,0,0,0,0,0,0,0,0,0,0,0,0,0,0,0,0,0,0,0,0,0,0,0,0,0,0,0,0,0,0,0,0,0,0,0,0,0,0,0,0,0,0,0,0.2032,0.2033,0,0.2131,0.2131,0.2132,0.2206,0.2207,0.2208,0.2209,0.2267,0.2268,0.2269,0,0,0,0,0,0,0,0,0,0,0,0,0,0.1912,0.1913,0.2031,0.2033,0.2035,0.2131,0.2131,0.2132,0.2206,0.2207,0.2208,0.221,0.2267,0.2268,0.2269,0,0,0,0,0,0,0,0,0,0,0,0,0,0.1979,0.1914,0.2031,0.2086,0.2092,0.213,0.2132,0.2133,0.2206,0.2207,0.2209,0.221,0.2267,0.2268,0.2269,0.2243,0,0,0.2271,0.2272,0,0,0,0,0,0,0,0,0.1975,0.1982,0.2076,0.2082,0.2089,0.2161,0.2111,0.2169,0.2205,0.2158,0.2209,0.2211,0.223,0.2234,0.2244,0.2246,0.2248,0.2271,0.2272,0.2272,0.2273,0,0,0,0,0,0,0,0.197,0.1979,0.2066,0.2078,0.2086,0.2108,0.2119,0.2122,0.218,0.2162,0.2169,0.2186,0.2233,0.2243,0.2245,0.2249,0.2271,0.2272,0.2273,0.2273,0.2347,0.2348,0,0,0,0,0,0,0.1964,0.1974,0.2063,0.207,0.204,0.2109,0.2121,0.2133,0.2181,0.2191,0.2185,0.2189,0.224,0.2244,0.2248,0.2346,0.2272,0.2273,0.2274,0.2345,0.2347,0.2348,0,0,0,0,0,0,0.1961,0.1971,0.2059,0.2028,0.2041,0.211,0.2123,0.2134,0.2194,0.2199,0.2208,0.2239,0.2242,0.2246,0.2279,0.2344,0.2274,0.2274,0.2344,0.2346,0.2348,0.2461,0,0,0,0,0,0,0.1957,0.1969,0.1996,0.2027,0.2043,0.2103,0.2122,0.2135,0.2201,0.2209,0.2247,0.2252,0.2243,0.2278,0.228,0.2344,0.2275,0.2342,0.2344,0.2347,0.2456,0.2467,0.2477,0,0,0,0,0,0.1952,0.1975,0.1996,0.2009,0.2071,0.2104,0.2114,0.2165,0.2203,0.2225,0.2252,0.2253,0.2297,0.2279,0.2281,0.2347,0.234,0.2344,0.2347,0.2451,0.2465,0.2476,0,0,0,0,0,0,0.1944,0.1986,0.201,0.2047,0.2085,0.2119,0.2154,0.2191,0.2232,0.2253,0.2261,0.2266,0.233,0.2308,0.2288,0.2373,0.2323,0.2327,0.2402,0.2415,0.2425,0.2422,0.2276,0,0,0,0,0,0.1951,0.1983,0.2019,0.2057,0.2074,0.2124,0.2156,0.219,0.2224,0.2248,0.2276,0.2302,0.2336,0.2351,0.2368,0.2399,0.241,0.2444,0.2454,0.2464,0.2462,0.254,0.2559,0.2359,0.2359,0.2359,0,0,0.1964,0.1992,0.2014,0.2059,0.2093,0.2124,0.2147,0.2203,0.225,0.2243,0.232,0.2347,0.2354,0.2405,0.243,0.2399,0.2528,0.2468,0.2476,0.2468,0.2546,0.2566,0.2583,0.2361,0.2361,0.236,0,0,0.1977,0.2023,0.2042,0.2072,0.2129,0.2158,0.2185,0.224,0.2288,0.2344,0.2372,0.2423,0.2462,0.2483,0.2497,0.2566,0.2591,0.2594,0.2639,0.2717,0.2735,0.275,0.2804,0.2824,0.2589,0.2589,0.2589,0,0.1991,0.2014,0.2056,0.2077,0.2108,0.2178,0.2201,0.2261,0.2328,0.237,0.2381,0.2484,0.2495,0.2567,0.2601,0.2594,0.2641,0.2597,0.2734,0.275,0.2764,0.2815,0.2835,0.2595,0.2594,0.2594,0.2593,0,0.1998,0.2034,0.205,0.2099,0.2141,0.2175,0.2248,0.2318,0.2389,0.2443,0.2547,0.257,0.2629,0.2656,0.2652,0.2767,0.2771,0.2753,0.2709,0.2792,0.2839,0.2858,0.2603,0.2601,0.2599,0.2598,0,0,0.1976,0.2036,0.2048,0.2069,0.2151,0.2181,0.2278,0.2362,0.2444,0.2529,0.2624,0.2695,0.274,0.2756,0.2782,0.2841,0.2988,0.2852,0.2853,0.2916,0.3174,0.2961,0.296,0.3022,0.3026,0.3028,0.3173,0,0.1965,0.199,0.2034,0.2089,0.2105,0.2199,0.2279,0.2384,0.2482,0.2597,0.2675,0.2778,0.2774,0.2833,0.2897,0.2971,0.3042,0.295,0.3073,0.3076,0.2886,0.2975,0.304,0.3187,0.3191,0.3194,0.3196,0,0.1942,0.1965,0.1991,0.2074,0.2094,0.216,0.23,0.2379,0.2557,0.2644,0.2765,0.2846,0.2972,0.2955,0.312,0.3078,0.3141,0.3181,0.3187,0.2955,0.2896,0.3081,0.323,0.3227,0.3225,0.3223,0.3221,0,0.1873,0.1937,0.1953,0.1979,0.2085,0.2152,0.2241,0.2404,0.25,0.2702,0.2813,0.2946,0.3065,0.3152,0.3249,0.322,0.3419,0.3376,0.3239,0.3225,0.3325,0.3306,0.35,0.35,0.35,0.35,0.3499,0,0.1811,0.1826,0.1938,0.1949,0.2023,0.2122,0.2232,0.2361,0.2551,0.2666,0.2847,0.2964,0.3136,0.3266,0.3306,0.3327,0.3473,0.3258,0.3251,0.3368,0.3353,0.3339,0.3319,0.3505,0.3504,0.3503,0.3502,0,0.1694,0.1758,0.1798,0.1932,0.1987,0.205,0.2241,0.2308,0.2533,0.27,0.2788,0.3047,0.3202,0.333,0.3485,0.3394,0.3428,0.3406,0.3539,0.3535,0.3167,0.3151,0.3243,0.3236,0.3231,0.3227,0.3223,0,0.1609,0.1615,0.1779,0.1813,0.1876,0.1989,0.2054,0.2283,0.2364,0.2711,0.2771,0.3043,0.3177,0.3239,0.3362,0.3418,0.3386,0.3372,0.3238,0.3158,0.3144,0.3136,0.3127,0.3214,0.3213,0.3212,0.321,0,0.1466,0.1554,0.1611,0.1692,0.1774,0.1833,0.1966,0.2036,0.2286,0.2523,0.2717,0.2844,0.3021,0.3119,0.3207,0.3229,0.3344,0.3315,0.3325,0.3199,0.3125,0.3114,0.3112,0.3192,0.3195,0.3196,0.3197,0,0.1373,0.1413,0.1519,0.1572,0.1631,0.1654,0.1753,0.1873,0.2018,0.2412,0.2461,0.2756,0.299,0.3026,0.309,0.3106,0.3047,0.2924,0.2952,0.2974,0.2814,0.2676,0.2611,0,0,0,0,0,0.1294,0.1339,0.1374,0.1433,0.1453,0.1509,0.1662,0.1766,0.204,0.2111,0.2297,0.2452,0.2615,0.2757,0.272,0.2931,0.3025,0.2869,0.2887,0.309,0.3111,0.2944,0,0,0,0,0,0,0.1245,0.1307,0.1354,0.1278,0.1261,0.1295,0.1392,0.1577,0.1638,0.1939,0.2046,0.2277,0.2465,0.2616,0.2669,0.2705,0.2658,0.3044,0.3036,0.3078,0.3097,0.3114,0.2949,0,0,0,0,0]},{"header":{"parameterUnit":"m.s-1","parameterCategory":2,"la1":30.2991,"la2":30.254,"lo1":-89.0895,"lo2":-89.0444,"dy":0.0017,"dx":0.0017,"nx":28,"ny":28,"refTime":"2023-08-01T21:00:00:Z","depth":"4","parameterNumber":3,"parameterNumberName":"V-component_of_CURRENTS"},"data":[0,0,0,0,0,0,0,0,0,0,0,0,0,0,0,0,0,0,0,0,0,0,0,0,0,0,0,0,0,0,0,0,0,0,0,0,0,0,0,0,0,0,0,0,0,0,0,0,0,0,0,0,0,0,0,0,0,0,0.0029,0.0028,0,-0.0004,-0.0005,-0.0005,-0.003,-0.003,-0.003,-0.0031,-0.0071,-0.0072,-0.0073,0,0,0,0,0,0,0,0,0,0,0,0,0,0.0048,0.0048,0.0029,0.0028,0.0028,-0.0004,-0.0005,-0.0005,-0.003,-0.003,-0.003,-0.0031,-0.0071,-0.0072,-0.0073,0,0,0,0,0,0,0,0,0,0,0,0,0,0.0029,0.0048,0.0029,0.0012,0.001,-0.0004,-0.0005,-0.0005,-0.003,-0.003,-0.0031,-0.0031,-0.0071,-0.0072,-0.0073,-0.0077,0,0,-0.0078,-0.0078,0,0,0,0,0,0,0,0,0.003,0.0028,0.0015,0.0013,0.0011,-0.0013,-0.0013,-0.0029,-0.003,-0.0015,-0.0031,-0.0031,-0.0052,-0.0055,-0.0061,-0.0079,-0.008,-0.0078,-0.0079,-0.0079,-0.008,0,0,0,0,0,0,0,0.0032,0.003,0.0015,0.0015,0.0012,-0.0001,-0.0004,-0.0016,-0.0032,-0.0017,-0.0018,-0.0021,-0.0053,-0.006,-0.0062,-0.0081,-0.0078,-0.0079,-0.008,-0.008,-0.0108,-0.0108,0,0,0,0,0,0,0.0038,0.0031,0.0016,0.0014,0.0021,-0.0001,-0.0005,-0.0005,-0.0032,-0.0036,-0.0021,-0.0022,-0.0057,-0.0061,-0.0064,-0.0064,-0.0079,-0.0081,-0.0081,-0.0108,-0.0108,-0.0108,0,0,0,0,0,0,0.0039,0.0037,0.0017,0.0022,0.0019,-0.0001,-0.0002,-0.0006,-0.0011,-0.0035,-0.004,-0.0022,-0.0058,-0.0062,-0.0072,-0.0066,-0.0081,-0.0082,-0.0108,-0.0108,-0.0108,-0.0068,0,0,0,0,0,0,0.004,0.0038,0.0041,0.0023,0.0019,0.0015,-0.0002,-0.0006,-0.0012,-0.0014,-0.0037,-0.0042,-0.0058,-0.007,-0.0074,-0.0068,-0.0084,-0.0108,-0.0108,-0.0108,-0.0069,-0.0066,-0.0064,0,0,0,0,0,0.004,0.0047,0.0042,0.004,0.0024,0.0015,0.0012,-0.0004,-0.0012,-0.001,-0.0028,-0.0041,-0.0072,-0.0071,-0.0075,-0.007,-0.0108,-0.0108,-0.0108,-0.0071,-0.0067,-0.0064,0,0,0,0,0,0,0.0055,0.0044,0.0038,0.0041,0.0031,0.0011,0.0011,0.0,-0.0012,-0.0013,-0.0038,-0.0044,-0.0053,-0.0066,-0.0065,-0.0079,-0.0093,-0.0093,-0.0063,-0.006,-0.0057,-0.0035,-0.0085,0,0,0,0,0,0.0061,0.0065,0.005,0.0053,0.0049,0.0031,0.0026,0.0017,0.0003,-0.0003,-0.0021,-0.004,-0.0055,-0.0061,-0.0078,-0.0081,-0.0108,-0.0082,-0.0079,-0.0076,-0.0062,-0.0106,-0.0106,-0.0107,-0.0107,-0.0107,0,0,0.0067,0.0062,0.0063,0.0056,0.0047,0.0055,0.0028,0.0025,0.0035,-0.0005,-0.0002,-0.0032,-0.0055,-0.0062,-0.0067,-0.0072,-0.0092,-0.0076,-0.0074,-0.0061,-0.0106,-0.0106,-0.0106,-0.0107,-0.0107,-0.0107,0,0,0.0087,0.0077,0.009,0.0087,0.008,0.0072,0.0074,0.0057,0.0052,0.0048,0.002,-0.0004,-0.0024,-0.0042,-0.0053,-0.0044,-0.008,-0.0052,-0.0016,-0.0059,-0.0059,-0.0059,-0.0101,-0.0106,-0.0047,-0.0047,-0.0047,0,0.0096,0.0115,0.0092,0.0106,0.0117,0.0084,0.0109,0.0096,0.0078,0.008,0.0056,0.0016,-0.0012,-0.0018,-0.0019,-0.0037,-0.0067,-0.0025,-0.0055,-0.0056,-0.0057,-0.01,-0.0106,-0.0045,-0.0045,-0.0045,-0.0045,0,0.0127,0.0146,0.0153,0.0166,0.017,0.0184,0.017,0.0169,0.0155,0.0138,0.0121,0.0072,0.0053,0.003,0.0009,-0.0008,-0.0031,-0.005,-0.0061,-0.0054,-0.0101,-0.0107,-0.0042,-0.0043,-0.0043,-0.0044,0,0,0.0145,0.0174,0.0178,0.0214,0.021,0.0227,0.0236,0.0245,0.0266,0.0214,0.0227,0.0171,0.0134,0.012,0.0077,0.0033,-0.0014,-0.0006,-0.001,-0.0044,-0.0112,-0.0117,-0.0125,-0.0043,-0.0044,-0.0044,-0.0144,0,0.0185,0.0243,0.024,0.0303,0.0339,0.0324,0.0343,0.0341,0.0326,0.0322,0.0251,0.0242,0.0172,0.0166,0.0105,0.0018,-0.0028,0.0015,-0.0116,-0.012,-0.0122,-0.0131,-0.0046,-0.0149,-0.015,-0.0151,-0.0152,0,0.0221,0.0265,0.0335,0.0404,0.0418,0.045,0.0496,0.0509,0.048,0.0462,0.0417,0.0358,0.0287,0.0228,0.0073,0.0102,0.0007,-0.0072,-0.0078,-0.0096,-0.0136,-0.0157,-0.0164,-0.0163,-0.0162,-0.0162,-0.0161,0,0.027,0.0336,0.0408,0.0427,0.0482,0.0526,0.056,0.0559,0.0594,0.0559,0.0564,0.0453,0.0413,0.0268,0.0092,0.0085,-0.0086,-0.0115,-0.0209,-0.0211,-0.0195,-0.0193,-0.0213,-0.0213,-0.0213,-0.0213,-0.0212,0,0.0323,0.0383,0.0448,0.0492,0.0595,0.0605,0.07,0.0705,0.0722,0.0761,0.0651,0.0639,0.0421,0.0291,0.0122,-0.0067,-0.0067,-0.02,-0.0235,-0.0177,-0.0173,-0.02,-0.0198,-0.0216,-0.0216,-0.0215,-0.0214,0,0.0365,0.04,0.0498,0.0587,0.0625,0.0704,0.0817,0.0871,0.0872,0.0917,0.0913,0.0781,0.06,0.0377,0.0135,-0.0008,-0.0196,-0.0258,-0.0176,-0.0206,-0.0301,-0.0295,-0.0371,-0.0372,-0.0373,-0.0373,-0.0374,0,0.0391,0.0441,0.0571,0.0641,0.0695,0.0812,0.0885,0.0942,0.1005,0.1,0.1022,0.0872,0.075,0.041,0.0156,-0.0166,-0.0211,-0.0307,-0.0311,-0.0289,-0.0316,-0.0309,-0.0302,-0.0375,-0.0375,-0.0375,-0.0376,0,0.0447,0.049,0.0573,0.0711,0.0821,0.0946,0.1065,0.1129,0.1174,0.1172,0.1119,0.0932,0.0724,0.0424,0.0174,-0.0059,-0.025,-0.0317,-0.0317,-0.0321,-0.0295,-0.032,-0.0312,-0.0378,-0.0378,-0.0378,-0.0378,0,0.0486,0.0551,0.0655,0.0778,0.0911,0.1044,0.1112,0.1186,0.1251,0.1245,0.1215,0.098,0.0835,0.048,0.0246,0.0014,-0.0048,-0.0121,-0.0133,-0.0133,-0.0044,0.0024,0.0014,0,0,0,0,0,0.0534,0.0603,0.0708,0.0857,0.0982,0.1064,0.1205,0.1256,0.1305,0.1287,0.1265,0.1068,0.071,0.0546,0.0316,0.0215,-0.0099,-0.0064,-0.0191,-0.0394,-0.0391,-0.0329,0,0,0,0,0,0,0.0562,0.0672,0.0713,0.0888,0.0983,0.114,0.1235,0.1273,0.1276,0.1272,0.1089,0.0995,0.0648,0.0831,0.03,0.0228,0.0115,-0.0234,-0.0239,-0.0396,-0.0393,-0.039,-0.0326,0,0,0,0,0]}]]